| time (UTC) | temp C | wind direction | speed KPH | gust KPH | rain 1hr cm | rain 24hr cm | rain mn cm | humidity % | barometer mb |
| 20260507015457 | 20 | 121 | 3.2 | 8.0 | 0.00 | 0.00 | 0.00 | 61 | 1015.5 |
| 20260507014426 | 20 | 99 | 3.2 | 8.0 | 0.00 | 0.00 | 0.00 | 59 | 1015.5 |
| 20260507013438 | 20 | 192 | 3.2 | 9.7 | 0.00 | 0.00 | 0.00 | 57 | 1015.5 |
| 20260507012432 | 21 | 126 | 3.2 | 9.7 | 0.00 | 0.00 | 0.00 | 56 | 1015.5 |
| 20260507011445 | 21 | 238 | 4.8 | 11.3 | 0.00 | 0.00 | 0.00 | 56 | 1015.4 |
| 20260507010439 | 21 | 183 | 4.8 | 12.9 | 0.00 | 0.00 | 0.00 | 56 | 1015.3 |
| 20260507005433 | 21 | 248 | 4.8 | 12.9 | 0.00 | 0.00 | 0.00 | 56 | 1015.3 |
| 20260507002111 | 21 | 194 | 4.8 | 16.1 | 0.00 | 0.00 | 0.00 | 55 | 1015.3 |
| 20260507001100 | 21 | 156 | 6.4 | 16.1 | 0.00 | 0.00 | 0.00 | 54 | 1015.2 |
| 20260506234922 | 22 | 153 | 6.4 | 12.9 | 0.00 | 0.00 | 0.00 | 51 | 1015.2 |
| 20260506233851 | 22 | 227 | 6.4 | 16.1 | 0.00 | 0.00 | 0.00 | 51 | 1015.2 |
| 20260506232839 | 22 | 169 | 6.4 | 14.5 | 0.00 | 0.00 | 0.00 | 52 | 1015.2 |
| 20260506231838 | 22 | 176 | 6.4 | 14.5 | 0.00 | 0.00 | 0.00 | 51 | 1015.3 |
| 20260506224611 | 22 | 217 | 6.4 | 12.9 | 0.00 | 0.00 | 0.00 | 50 | 1015.5 |
| 20260506222457 | 23 | 240 | 6.4 | 16.1 | 0.00 | 0.00 | 0.00 | 49 | 1015.8 |
| 20260506221449 | 23 | 169 | 4.8 | 17.7 | 0.00 | 0.00 | 0.00 | 49 | 1015.9 |
| 20260506220511 | 23 | 147 | 6.4 | 17.7 | 0.00 | 0.00 | 0.00 | 50 | 1016.0 |
| 20260506215529 | 23 | 108 | 4.8 | 12.9 | 0.00 | 0.00 | 0.00 | 50 | 1016.1 |
| 20260506214540 | 23 | 77 | 4.8 | 11.3 | 0.00 | 0.00 | 0.00 | 50 | 1016.2 |
| 20260506213529 | 23 | 128 | 4.8 | 14.5 | 0.00 | 0.00 | 0.00 | 50 | 1016.3 |
| 20260506212459 | 23 | 190 | 4.8 | 14.5 | 0.00 | 0.00 | 0.00 | 52 | 1016.5 |
| 20260506211431 | 23 | 187 | 3.2 | 9.7 | 0.00 | 0.00 | 0.00 | 51 | 1016.6 |
| 20260506210450 | 23 | 108 | 3.2 | 12.9 | 0.00 | 0.00 | 0.00 | 53 | 1016.7 |
| 20260506205513 | 22 | 167 | 4.8 | 16.1 | 0.00 | 0.00 | 0.00 | 52 | 1016.7 |
| 20260506204512 | 22 | 85 | 6.4 | 16.1 | 0.00 | 0.00 | 0.00 | 52 | 1016.8 |
| 20260506203505 | 23 | 150 | 3.2 | 11.3 | 0.00 | 0.00 | 0.00 | 51 | 1016.8 |
| 20260506202429 | 23 | 155 | 1.6 | 4.8 | 0.00 | 0.00 | 0.00 | 51 | 1016.9 |
| 20260506201412 | 22 | 155 | 3.2 | 9.7 | 0.00 | 0.00 | 0.00 | 52 | 1017.1 |
| 20260506200344 | 22 | 195 | 3.2 | 12.9 | 0.00 | 0.00 | 0.00 | 54 | 1017.2 |
| 20260506195359 | 22 | 168 | 6.4 | 12.9 | 0.00 | 0.00 | 0.00 | 54 | 1017.4 |
| 20260506194408 | 22 | 148 | 3.2 | 12.9 | 0.00 | 0.00 | 0.00 | 54 | 1017.4 |
| 20260506193359 | 22 | 139 | 4.8 | 11.3 | 0.00 | 0.00 | 0.00 | 54 | 1017.6 |
| 20260506192347 | 21 | 174 | 4.8 | 12.9 | 0.00 | 0.00 | 0.00 | 56 | 1017.7 |
| 20260506191353 | 22 | 91 | 3.2 | 12.9 | 0.00 | 0.00 | 0.00 | 53 | 1017.8 |
| 20260506190417 | 21 | 151 | 1.6 | 9.7 | 0.00 | 0.00 | 0.00 | 54 | 1017.9 |
| 20260506185346 | 21 | 139 | 3.2 | 9.7 | 0.00 | 0.00 | 0.00 | 54 | 1018.0 |
| 20260506184401 | 21 | 96 | 1.6 | 1.6 | 0.00 | 0.00 | 0.00 | 55 | 1018.0 |
| 20260506183408 | 21 | 101 | 1.6 | 8.0 | 0.00 | 0.00 | 0.00 | 54 | 1018.1 |
| 20260506182358 | 21 | 352 | 0.0 | 0.0 | 0.00 | 0.00 | 0.00 | 55 | 1018.2 |
| 20260506181327 | 21 | 164 | 1.6 | 9.7 | 0.00 | 0.00 | 0.00 | 56 | 1018.3 |
| 20260506180254 | 20 | 143 | 0.0 | 4.8 | 0.00 | 0.00 | 0.00 | 57 | 1018.3 |
| 20260506175306 | 20 | 295 | 0.0 | 8.0 | 0.00 | 0.00 | 0.00 | 59 | 1018.4 |
| 20260506174310 | 20 | 112 | 0.0 | 0.0 | 0.00 | 0.00 | 0.00 | 57 | 1018.4 |
| 20260506172220 | 20 | 167 | 0.0 | 4.8 | 0.00 | 0.00 | 0.00 | 57 | 1018.5 |
| 20260506171201 | 18 | 217 | 0.0 | 6.4 | 0.00 | 0.00 | 0.00 | 60 | 1018.5 |
| 20260506170156 | 18 | 115 | 0.0 | 8.0 | 0.00 | 0.00 | 0.00 | 63 | 1018.5 |
| 20260506165142 | 18 | 96 | 0.0 | 0.0 | 0.00 | 0.00 | 0.00 | 64 | 1018.5 |
| 20260506164140 | 18 | 73 | 0.0 | 8.0 | 0.00 | 0.00 | 0.00 | 64 | 1018.4 |
| 20260506163105 | 18 | 239 | 0.0 | 0.0 | 0.00 | 0.00 | 0.00 | 64 | 1018.6 |
| 20260506162049 | 17 | 197 | 0.0 | 4.8 | 0.00 | 0.00 | 0.00 | 66 | 1018.6 |
| 20260506161045 | 17 | 93 | 0.0 | 4.8 | 0.00 | 0.00 | 0.00 | 66 | 1018.7 |
| 20260506160015 | 16 | 193 | 0.0 | 0.0 | 0.00 | 0.00 | 0.00 | 70 | 1018.7 |
| 20260506154948 | 16 | 136 | 0.0 | 1.6 | 0.00 | 0.00 | 0.00 | 70 | 1018.7 |
| 20260506153927 | 16 | 108 | 0.0 | 0.0 | 0.00 | 0.00 | 0.00 | 70 | 1018.8 |
| 20260506152940 | 16 | 161 | 0.0 | 0.0 | 0.00 | 0.00 | 0.00 | 70 | 1018.8 |
| 20260506151943 | 16 | 91 | 0.0 | 0.0 | 0.00 | 0.00 | 0.00 | 71 | 1018.9 |
| 20260506150959 | 16 | 108 | 0.0 | 1.6 | 0.00 | 0.00 | 0.00 | 69 | 1018.8 |
| 20260506144824 | 15 | 169 | 0.0 | 0.0 | 0.00 | 0.00 | 0.00 | 69 | 1018.9 |
| 20260506143817 | 15 | 284 | 0.0 | 0.0 | 0.00 | 0.00 | 0.00 | 70 | 1018.9 |
| 20260506141749 | 13 | 250 | 0.0 | 0.0 | 0.00 | 0.00 | 0.00 | 74 | 1018.9 |
| 20260506140716 | 13 | 250 | 0.0 | 0.0 | 0.00 | 0.00 | 0.00 | 83 | 1018.7 |
| 20260506135653 | 11 | 251 | 0.0 | 0.0 | 0.00 | 0.00 | 0.00 | 88 | 1018.6 |
| 20260506133548 | 9 | 250 | 0.0 | 0.0 | 0.00 | 0.00 | 0.00 | 91 | 1018.5 |
| 20260506132607 | 8 | 250 | 0.0 | 0.0 | 0.00 | 0.00 | 0.00 | 91 | 1018.5 |
| 20260506131539 | 8 | 251 | 0.0 | 0.0 | 0.00 | 0.00 | 0.00 | 91 | 1018.4 |
| 20260506130540 | 8 | 251 | 0.0 | 0.0 | 0.00 | 0.00 | 0.00 | 91 | 1018.3 |
| 20260506125542 | 8 | 250 | 0.0 | 0.0 | 0.00 | 0.00 | 0.00 | 90 | 1018.2 |
| 20260506124602 | 8 | 251 | 0.0 | 0.0 | 0.00 | 0.00 | 0.00 | 90 | 1018.1 |
| 20260506123609 | 9 | 250 | 0.0 | 0.0 | 0.00 | 0.00 | 0.00 | 91 | 1018.1 |
| 20260506122612 | 9 | 251 | 0.0 | 0.0 | 0.00 | 0.00 | 0.00 | 91 | 1017.9 |
| 20260506115341 | 9 | 251 | 0.0 | 0.0 | 0.00 | 0.00 | 0.00 | 91 | 1017.8 |
| 20260506114350 | 8 | 251 | 0.0 | 0.0 | 0.00 | 0.00 | 0.00 | 90 | 1017.7 |
| 20260506113347 | 9 | 251 | 0.0 | 0.0 | 0.00 | 0.00 | 0.00 | 90 | 1017.7 |
| 20260506112317 | 10 | 251 | 0.0 | 0.0 | 0.00 | 0.00 | 0.00 | 90 | 1017.7 |
| 20260506111333 | 10 | 250 | 0.0 | 0.0 | 0.00 | 0.00 | 0.00 | 90 | 1017.6 |
| 20260506110259 | 10 | 250 | 0.0 | 0.0 | 0.00 | 0.00 | 0.00 | 90 | 1017.5 |
| 20260506104139 | 10 | 251 | 0.0 | 0.0 | 0.00 | 0.00 | 0.00 | 88 | 1017.6 |
| 20260506103115 | 10 | 251 | 0.0 | 0.0 | 0.00 | 0.00 | 0.00 | 87 | 1017.7 |
| 20260506102123 | 10 | 250 | 0.0 | 0.0 | 0.00 | 0.00 | 0.00 | 88 | 1017.6 |
| 20260506100007 | 9 | 108 | 0.0 | 0.0 | 0.00 | 0.00 | 0.00 | 87 | 1017.5 |
| 20260506093914 | 10 | 108 | 0.0 | 0.0 | 0.00 | 0.00 | 0.00 | 87 | 1017.8 |
| 20260506092848 | 10 | 108 | 0.0 | 0.0 | 0.00 | 0.00 | 0.00 | 87 | 1017.7 |
| 20260506091852 | 10 | 108 | 0.0 | 0.0 | 0.00 | 0.00 | 0.00 | 88 | 1017.7 |
| 20260506090850 | 10 | 108 | 0.0 | 0.0 | 0.00 | 0.00 | 0.00 | 88 | 1017.7 |
| 20260506085830 | 10 | 108 | 0.0 | 0.0 | 0.00 | 0.00 | 0.00 | 88 | 1017.8 |
| 20260506084815 | 11 | 108 | 0.0 | 0.0 | 0.00 | 0.00 | 0.00 | 89 | 1017.9 |
| 20260506083800 | 11 | 108 | 0.0 | 0.0 | 0.00 | 0.00 | 0.00 | 90 | 1018.0 |
| 20260506082804 | 10 | 108 | 0.0 | 0.0 | 0.00 | 0.00 | 0.00 | 89 | 1018.0 |
| 20260506081804 | 11 | 108 | 0.0 | 0.0 | 0.00 | 0.00 | 0.00 | 88 | 1017.9 |
| 20260506080824 | 11 | 108 | 0.0 | 0.0 | 0.00 | 0.00 | 0.00 | 88 | 1018.0 |
| 20260506071631 | 11 | 108 | 0.0 | 0.0 | 0.00 | 0.00 | 0.00 | 86 | 1017.9 |
| 20260506070649 | 12 | 108 | 0.0 | 0.0 | 0.00 | 0.00 | 0.00 | 84 | 1017.8 |
| 20260506062515 | 12 | 108 | 0.0 | 0.0 | 0.00 | 0.00 | 0.00 | 82 | 1017.2 |
| 20260506061516 | 12 | 118 | 0.0 | 0.0 | 0.00 | 0.00 | 0.00 | 82 | 1017.3 |
| 20260506044933 | 13 | 98 | 0.0 | 0.0 | 0.00 | 0.00 | 0.00 | 78 | 1016.6 |
| 20260506043906 | 13 | 139 | 0.0 | 0.0 | 0.00 | 0.00 | 0.00 | 77 | 1016.4 |
| 20260506042853 | 13 | 154 | 0.0 | 0.0 | 0.00 | 0.00 | 0.00 | 77 | 1016.3 |
| 20260506041845 | 14 | 120 | 0.0 | 0.0 | 0.00 | 0.00 | 0.00 | 76 | 1016.0 |
| 20260506040910 | 14 | 129 | 0.0 | 0.0 | 0.00 | 0.00 | 0.00 | 76 | 1016.0 |
| 20260506035826 | 14 | 132 | 0.0 | 0.0 | 0.00 | 0.00 | 0.00 | 75 | 1015.9 |
| 20260506033604 | 15 | 120 | 0.0 | 0.0 | 0.00 | 0.00 | 0.00 | 74 | 1015.7 |
| 20260506030429 | 15 | 134 | 0.0 | 1.6 | 0.00 | 0.00 | 0.00 | 71 | 1015.1 |
| 20260506025447 | 15 | 97 | 0.0 | 4.8 | 0.00 | 0.00 | 0.00 | 70 | 1014.9 |
| 20260506024512 | 15 | 135 | 1.6 | 4.8 | 0.00 | 0.00 | 0.00 | 69 | 1014.7 |
| 20260506022343 | 15 | 117 | 1.6 | 6.4 | 0.00 | 0.00 | 0.00 | 68 | 1014.6 |
| 20260506020239 | 16 | 139 | 0.0 | 4.8 | 0.00 | 0.00 | 0.00 | 66 | 1014.2 |